Location: Alsip
(41.6689°N, 87.7387°W)
Time: 15:09:01
(UTC+00:00)

USA 267 - Pass Details

Date: 14 July 2020
Orbit: 1102 x 1106 km, 123.0° (Epoch: 09 August)

Event Time Altitude Azimuth Distance (km) Brightness Sun altitude
Exits shadow 05:54:07 43° 124° (SE) 1,492 3.6 -26.7°
Maximum altitude 05:56:28 85° 41° (NE) 1,111 3.2 -26.7°
Drops below altitude 10° 06:03:02 10° 313° (NW) 2,964 6.0 -26.7°
Sets 06:05:31 0° 313° (NW) 3,924 6.7 -26.7°
